Cloud_Cover
99 100 100 100 100 26 0 0 0 80 99 6 2 0 0 0 0 29 34 74 43 52 99 100 100 100 100 86 20 1 10 16 14 7 1 0 0 0 0 0 0 0 6 6 4 1 0 0 0
4 85 100 100 100 98 4 0 0 4 31 99 91 4 0 3 8 94 55 83 92 96 98 90 100 100 100 100 100 100 100 100 85 69 61 34 11 16 0 0 0 0 6 7 0 3 0 0 0
69 39 72 100 100 30 1 0 0 4 0 0 1 4 5 54 48 98 100 84 100 100 100 100 100 100 100 100 100 100 100 100 76 33 26 38 100 89 29 10 0 1 12 17 6 0 0 0 0
98 100 100 100 100 6 0 0 0 5 6 70 2 4 5 30 16 58 99 100 100 100 100 100 100 100 66 100 84 6 4 5 24 2 0 0 0 0 0 0 0 17 24 23 6 1 0 0 0
99 63 76 100 100 73 0 0 14 100 100 100 26 36 58 19 27 100 95 20 52 96 72 56 8 0 2 6 5 5 3 0 0 0 0 0 0 0 0 0 0 0 0 0 0 0 0 0 0
34 38 98 100 100 6 0 0 55 100 100 100 20 99 100 38 40 70 0 4 22 13 5 5 3 0 0 5 5 5 4 2 5 0 0 0 0 0 0 0 0 0 0 0 0 0 0 0 0
62 67 100 100 100 0 0 3 100 100 100 76 29 98 97 100 26 2 0 0 0 4 5 5 5 2 2 90 100 94 5 5 5 0 0 0 0 0 0 0 0 0 0 0 0 0 0 0 0
91 99 100 100 3 5 36 6 48 100 100 84 21 9 77 100 19 1 0 0 0 0 4 99 16 5 5 89 100 84 5 5 0 0 0 0 1 5 0 0 0 0 0 0 0 0 0 0 35
49 90 100 100 5 20 96 94 6 92 94 24 7 100 100 35 4 0 0 2 0 0 0 0 5 5 5 12 100 84 64 22 3 0 0 5 0 5 0 0 0 0 0 0 0 0 0 0 0
12 100 100 35 13 98 82 72 3 0 4 4 5 62 98 100 22 5 12 12 2 0 0 0 0 1 5 61 100 94 42 100 26 12 57 33 16 5 5 5 0 0 0 0 0 0 0 0 0
75 100 71 90 100 100 100 100 3 0 5 9 50 23 6 17 30 8 34 5 3 5 0 0 0 0 4 57 100 100 78 100 100 100 100 100 100 66 4 4 4 2 5 4 3 0 0 0 0
94 100 66 100 100 100 100 100 53 6 89 100 100 32 7 5 43 99 20 2 1 0 0 5 4 0 5 10 100 100 100 100 100 100 100 100 100 100 100 31 5 6 5 5 7 5 0 0 0
98 100 100 100 98 100 100 100 82 100 100 91 91 12 5 6 10 13 2 1 4 4 5 5 2 2 0 76 100 100 100 100 100 100 100 100 100 100 100 31 5 25 30 48 33 16 42 25 8
100 100 100 100 100 22 24 100 97 91 84 100 100 100 50 5 1 3 0 2 0 0 6 9 5 5 3 26 100 100 100 100 100 100 100 87 98 77 10 12 6 5 49 72 5 100 96 79 87
100 100 100 100 100 97 51 100 100 96 10 5 12 7 32 52 7 5 5 5 5 1 3 1 5 5 9 41 100 100 100 100 100 100 100 100 100 100 98 54 5 18 21 54 100 81 12 43 89
100 100 100 100 100 100 91 88 100 100 100 63 8 23 79 34 27 40 57 9 5 0 3 12 4 6 28 5 15 19 100 100 100 100 100 100 100 100 100 87 100 62 39 5 5 4 4 4 3
95 100 100 100 100 100 100 100 100 100 100 100 76 68 60 52 65 86 82 8 10 4 2 4 42 18 74 5 6 19 34 65 69 73 36 61 13 41 100 100 100 97 38 29 5 2 0 0 1
92 53 100 100 100 100 100 100 100 100 100 100 98 61 99 86 97 93 53 26 19 5 84 54 3 43 78 37 39 63 100 99 89 100 79 98 68 10 5 5 7 5 5 5 5 4 5 5 2
24 97 6 100 100 100 100 100 100 100 74 52 98 100 100 100 100 100 100 100 100 100 100 100 100 86 24 34 4 54 45 5 5 5 6 29 4 43 47 5 7 5 5 0 5 6 92 100 100
7 43 99 100 100 9 99 49 99 99 76 92 98 84 99 100 100 100 100 100 100 100 100 100 72 6 16 77 99 84 90 76 35 5 4 74 66 94 68 66 92 100 74 79 100 100 94 58 73
100 100 100 100 100 52 48 25 74 100 78 50 5 5 4 62 91 99 93 100 100 99 100 94 23 2 5 3 5 6 14 96 45 11 15 5 39 20 78 75 97 76 99 100 100 97 100 97 98
66 46 15 74 100 93 100 31 100 100 100 100 89 47 33 23 4 18 31 21 70 61 58 69 9 6 5 2 2 14 84 6 5 5 5 65 49 30 57 98 68 69 65 17 100 100 91 96 84
16 17 5 5 5 77 96 28 95 100 100 100 100 100 73 39 4 87 5 17 85 85 100 100 52 54 8 5 0 4 5 5 5 5 7 13 94 99 100 100 100 100 100 90 100 55 12 69 54
61 21 31 34 4 4 100 100 4 100 100 91 34 96 100 76 0 2 1 2 5 50 98 92 100 100 97 75 7 92 100 100 100 100 100 100 100 100 100 50 94 100 100 100 100 85 60 84 99
92 42 22 5 5 4 70 5 5 95 100 52 8 49 100 100 100 100 100 100 55 20 93 100 100 100 100 92 100 100 100 100 100 100 100 100 95 91 91 87 100 100 100 100 99 72 85 96 43
76 19 96 96 50 11 99 68 93 29 75 8 41 36 100 100 100 99 100 100 100 98 100 100 100 100 100 100 100 100 100 100 100 100 100 100 99 92 70 21 81 100 77 100 100 99 91 6 11
100 21 82 100 20 23 19 98 100 98 100 100 13 5 55 25 90 100 100 100 100 100 100 100 100 100 100 100 100 100 100 100 100 100 100 100 100 100 100 100 100 93 46 64 73 100 100 100 96
100 100 100 100 96 100 78 5 56 88 22 1 9 47 4 8 52 93 100 100 100 100 100 100 100 100 100 100 100 100 100 100 100 100 100 100 100 100 100 84 92 100 100 100 100 100 100 100 100
100 97 100 100 100 97 100 93 100 100 100 79 5 5 5 5 31 100 92 100 100 100 100 100 100 100 100 100 100 100 100 100 100 100 100 100 100 100 100 100 100 100 100 100 100 100 100 100 100
100 100 100 100 100 100 99 100 100 100 100 100 100 90 99 89 61 64 90 100 100 100 100 100 100 100 100 100 100 100 100 100 100 100 100 100 100 100 100 80 100 96 100 70 16 19 11 13 62